RS-30
1 32953U 08025A 13045.79998548 .00000010 00000-0 00000 0 0 5939
2 32953 082.5046 144.2953 0019806 137.7068 222.5543 12.43031335214705
METEOR-M
1 35865U 09049A 13045.71331031 -.00000012 00000-0 14023-4 0 2149
2 35865 098.6205 101.0498 0003344 070.4486 289.7042 14.21879914177064
RS-38
1 35869U 09049E 13045.76711682 .00000003 00000-0 20836-4 0 1868
2 35869 098.6148 101.0498 0005513 070.4111 289.7664 14.22112560177090
JUGNU
1 37839U 11058B 13045.19478227 .00000620 00000-0 19019-3 0 3319
2 37839 019.9635 332.0371 0019382 011.1535 348.9297 14.12126573 69495
SRMSAT
1 37841U 11058D 13045.08414855 .00000264 00000-0 00000 0 0 3328
2 37841 019.9732 342.3450 0011678 325.1251 034.8404 14.10199175 69375
RAX-2
1 37853U 11061D 13045.90357814 .00001787 00000-0 14580-3 0 4264
2 37853 101.7121 203.0140 0239232 017.5307 343.3975 14.82346775 70328
AUBIESAT
1 37854U 11061E 13045.37471623 .00002059 00000-0 16316-3 0 4241
2 37854 101.7153 202.8668 0239644 017.9529 342.9956 14.82941542 70252
HRBE
1 37855U 11061F 13045.89376817 .00001879 00000-0 15061-3 0 4209
2 37855 101.7156 203.4702 0240287 016.7639 344.1333 14.82674469 70328
RS-39
1 38051U 11062C 13045.73285944 .00008047 00000-0 29168-3 0 1712
2 38051 051.6359 079.9858 0012202 179.6677 290.8666 15.29191553 59028
E-STAR
1 38079U 12006C 13045.62788331 .00040202 32988-5 87931-3 0 8956
2 38079 069.4782 113.7089 0666339 297.3668 056.1219 14.34109701 52100
GOLIAT
1 38085U 12006J 13045.61951932 .00035593 32360-5 78442-3 0 8285
2 38085 069.4856 115.0891 0673312 298.0947 055.3723 14.32532830 52069
HORYU-2
1 38340U 12025D 13045.37382985 .00000855 00000-0 14895-3 0 3695
2 38340 098.2045 352.0874 0011740 284.9717 075.0174 14.70612234 40062
RS-40
1 38736U 12041D 13045.48864529 .00000010 00000-0 00000 0 0 1873
2 38736 082.4726 231.6357 0018091 236.1810 123.7553 12.42650622 25008
PROITERES
1 38756U 12047B 13045.73372358 .00000377 00000-0 65319-4 0 5074
2 38756 098.2648 120.4839 0013372 132.8775 227.3555 14.74074912 23355
RAIKO
1 38852U 98067CN 13045.31529789 .00037285 00000-0 43967-3 0 1420
2 38852 051.6473 354.2899 0012237 259.3672 100.5957 15.60898715 20596
FITSAT 1
1 38853U 98067CP 13045.87427826 .00050022 00000-0 54156-3 0 1405
2 38853 051.6473 350.5379 0008837 277.3180 082.6831 15.63015353 20744
TechEdSat
1 38854U 98067CQ 13045.87630665 .00089079 00000-0 77017-3 0 1587
2 38854 051.6425 348.2761 0006362 276.3424 083.6854 15.68423387 20776
F 1
1 38855U 98067CR 13045.89843180 .00083370 00000-0 74078-3 0 1603
2 38855 051.6430 348.4130 0006462 290.0204 070.0124 15.67780506 20661
WeWish
1 38856U 98067CS 13045.89292060 .00309601 00000-0 12785-2 0 1816
2 38856 051.6382 343.0805 0004033 253.2660 106.8301 15.84475767 20739
